Probability
3 1 0 0 0 0 0 0 0 0 0 0 0 0 0 0 0 0 0 0 0 0 0 0 0 0 0 0 0 0 0 0 0 0 0 0 0 0 0 0 0 0 0 0 0 0 0 0 0
2 1 0 0 0 0 0 0 0 0 0 0 0 0 0 0 0 0 0 0 0 0 0 0 0 0 0 0 0 0 0 0 0 0 0 0 0 0 0 0 0 0 0 0 0 0 0 0 0
1 0 0 0 0 0 0 0 0 0 0 0 0 0 0 0 0 0 0 0 0 0 0 0 0 0 0 0 0 0 0 0 0 0 0 0 0 0 0 0 0 0 0 0 0 0 0 0 0
1 0 0 0 0 0 0 0 0 0 0 0 0 0 0 0 0 0 0 0 0 0 0 0 0 0 0 0 0 0 0 0 0 1 0 0 0 0 0 0 0 0 0 0 0 0 0 0 0
0 0 0 0 0 0 0 0 0 0 0 0 0 0 0 0 0 0 0 0 0 0 0 0 0 0 0 0 0 0 0 0 0 0 0 0 0 0 0 0 0 0 0 0 0 0 0 0 0
0 0 0 0 0 0 0 0 0 0 0 0 0 0 0 0 0 1 1 0 0 0 0 0 0 0 0 0 0 0 0 0 0 0 0 0 0 0 0 0 0 0 0 0 0 0 0 0 0
0 0 0 0 0 0 0 0 0 0 0 0 0 0 0 0 1 2 2 1 0 0 0 0 0 0 0 0 0 0 0 0 0 0 0 0 0 0 0 0 0 0 0 0 0 0 0 0 0
0 0 0 0 0 0 0 0 0 0 0 0 0 0 0 0 1 3 2 1 0 0 0 0 0 0 0 0 0 0 0 0 0 0 0 0 0 0 0 0 0 0 0 1 1 1 1 0 0
0 0 0 0 0 0 0 0 0 0 0 0 0 0 0 1 2 3 2 1 0 0 0 0 0 0 0 0 0 0 0 0 0 0 0 0 0 0 0 0 0 0 1 2 2 2 1 0 0
0 0 0 0 0 0 0 0 0 0 0 0 0 1 1 2 3 3 1 0 0 0 0 0 0 0 0 0 0 0 0 0 0 0 0 0 0 0 0 0 0 0 1 2 1 1 1 0 0
0 0 0 0 0 0 0 0 0 0 0 0 1 2 3 5 5 3 1 0 0 0 0 0 0 0 0 0 0 0 0 0 0 0 0 0 0 0 0 0 0 0 1 1 0 0 0 0 0
0 0 0 0 0 0 0 0 0 0 0 0 1 3 5 6 6 3 1 0 0 0 0 0 0 0 0 0 0 0 0 0 0 0 0 0 0 0 0 0 0 0 0 0 0 0 0 0 0
0 0 0 0 0 0 0 0 0 0 0 0 1 4 6 6 6 4 2 0 0 0 0 0 0 0 0 0 0 0 0 0 0 0 0 0 0 0 0 0 0 0 0 0 0 0 0 0 0
0 0 0 0 0 0 0 0 0 0 0 0 1 4 6 6 6 4 2 0 0 0 0 0 0 0 0 0 0 0 0 0 0 0 0 0 0 0 0 0 0 0 0 0 0 0 0 0 0
0 0 0 0 0 0 0 0 0 0 0 0 1 3 6 6 6 4 2 1 0 0 0 0 0 0 0 0 0 0 0 0 0 0 0 0 0 0 0 0 0 0 0 0 0 0 0 0 0
0 0 0 0 0 0 0 0 0 0 0 0 0 2 4 6 5 4 2 1 0 0 0 0 0 0 0 0 0 0 0 0 0 0 0 0 0 0 0 0 0 0 0 0 0 0 0 0 0
0 0 0 0 0 0 0 0 0 0 0 0 0 1 3 4 5 4 2 0 0 0 0 0 0 0 0 0 0 0 0 0 0 0 0 0 0 0 0 0 0 0 0 0 0 0 0 0 0
0 0 0 0 0 0 0 0 0 0 0 0 0 0 1 3 5 6 3 0 0 1 1 0 0 0 0 0 0 0 0 0 0 0 0 0 0 0 0 0 0 0 0 0 0 0 0 0 0
0 0 0 0 0 0 0 0 0 0 0 0 0 0 0 1 4 6 4 1 1 2 2 1 0 0 0 0 0 0 0 0 0 0 0 0 0 0 0 0 0 0 0 0 0 0 0 0 0
0 0 0 0 0 0 0 0 0 0 0 0 0 0 0 1 3 6 4 2 1 3 3 1 0 0 0 0 0 0 0 0 0 0 0 0 0 0 0 0 0 0 0 0 0 0 0 0 0
0 0 0 0 0 0 0 0 0 0 0 0 0 0 0 1 3 5 5 3 3 3 3 2 1 0 0 0 0 0 0 0 0 0 0 0 0 0 0 0 0 0 0 0 0 0 0 0 0
0 0 0 0 0 0 0 0 0 0 0 0 0 0 0 0 2 4 4 3 3 3 3 3 2 1 1 1 0 0 0 0 0 0 0 0 0 0 0 0 0 0 0 0 0 0 0 0 0
0 0 0 0 0 0 0 0 0 0 0 0 0 0 0 0 1 3 3 3 3 3 3 3 3 3 2 2 1 0 0 0 0 0 0 0 0 0 0 0 0 0 0 0 0 0 0 0 0
0 0 0 0 0 0 0 0 0 0 0 0 0 0 0 0 1 3 3 2 2 3 3 3 3 3 3 3 2 1 1 0 0 0 0 0 0 0 0 0 0 0 0 0 0 0 0 0 0
0 0 0 0 0 0 0 0 0 0 0 0 0 0 0 1 2 3 3 2 1 1 3 3 3 3 3 3 3 3 2 1 0 0 0 0 0 0 0 0 0 0 0 0 0 0 0 0 0
0 0 0 0 0 0 0 0 0 0 0 0 0 0 0 1 2 3 3 2 1 1 2 3 3 3 3 3 3 3 3 2 1 0 0 0 0 0 0 0 0 0 0 0 0 0 0 0 0
0 0 0 0 0 0 0 0 0 0 0 0 0 0 0 1 2 3 3 2 1 0 1 3 3 3 3 3 3 3 3 2 1 0 0 0 0 0 0 0 0 0 0 0 0 0 0 0 0
0 0 0 0 0 0 0 0 0 0 0 0 0 0 0 1 2 3 3 3 2 1 1 2 3 3 3 3 3 3 3 3 1 1 0 0 0 0 0 0 0 0 0 0 0 0 0 0 0
0 0 0 0 0 0 0 0 0 0 0 0 0 0 1 2 3 3 3 3 3 2 1 1 2 3 3 3 3 3 3 3 3 2 1 0 0 0 0 0 0 0 0 0 0 0 0 0 0
0 0 0 0 0 0 0 0 0 0 0 0 0 1 2 2 3 3 3 3 3 2 1 0 1 3 3 3 3 3 3 3 3 3 2 1 0 0 0 0 0 0 0 0 0 0 0 0 0
Wind_Speed
2 2 3 3 5 4 2 1 1 2 3 4 7 9 8 5 4 3 1 5 7 5 3 4 7 8 8 8 8 8 9 9 9 9 10 10 10 10 10 10 10 10 10 10 9 9 9 9 9
1 1 3 4 5 3 1 1 3 2 4 4 6 7 7 5 4 4 2 5 7 5 4 4 7 8 8 8 8 8 9 9 9 10 10 10 10 10 10 10 10 10 10 9 9 9 9 9 9
1 1 3 4 3 2 2 1 3 3 4 4 5 5 5 3 3 3 4 7 6 5 4 5 8 8 8 8 8 8 8 8 9 9 9 9 9 10 10 10 10 9 9 9 9 9 9 9 10
2 4 4 5 3 0 3 3 2 3 4 5 6 6 4 2 2 4 7 8 7 5 4 5 8 9 9 9 9 8 8 8 9 9 9 9 9 9 10 10 9 9 9 9 9 9 8 8 9
3 4 5 3 2 1 1 2 3 4 3 5 6 6 3 2 4 7 8 8 7 5 3 4 8 9 9 9 9 9 9 8 8 9 9 9 9 9 9 9 9 8 8 8 8 7 8 8 8
4 4 4 2 1 1 2 2 5 5 5 5 6 5 2 1 5 6 7 6 7 6 4 4 8 9 9 9 9 9 8 8 9 8 8 8 8 8 8 8 9 8 8 8 7 7 7 8 8
4 4 3 3 2 1 1 2 4 4 4 3 5 5 2 1 3 5 6 6 6 5 4 3 3 5 7 8 8 8 8 8 7 7 7 7 7 7 7 7 8 8 7 7 7 6 7 8 8
4 4 2 2 2 1 1 2 4 5 3 3 4 7 4 4 4 6 6 5 5 5 4 3 3 2 2 3 6 7 7 7 7 6 6 6 6 6 6 6 6 7 7 6 6 6 6 7 7
4 5 1 2 3 2 1 3 2 4 5 4 4 5 6 7 6 6 5 4 4 4 3 3 3 2 2 2 3 4 5 5 4 4 4 4 2 2 3 4 6 6 6 6 6 6 6 7 8
4 3 2 3 5 3 1 2 3 4 5 5 5 5 7 7 7 6 6 5 4 4 3 3 3 3 2 2 2 1 2 1 1 1 1 2 1 1 2 3 4 4 5 5 6 6 6 5 4
3 4 2 2 4 4 2 1 2 5 2 5 8 8 8 7 6 6 5 5 5 5 4 4 4 3 3 2 2 1 1 1 1 1 2 2 2 2 2 2 2 3 3 3 4 5 3 3 3
3 2 3 3 3 3 2 2 2 3 4 6 9 11 9 7 6 6 6 5 4 4 4 4 4 4 3 2 2 2 1 1 1 1 2 2 2 2 1 1 2 2 2 2 2 2 3 4 3
2 2 2 3 4 3 3 2 3 2 4 7 9 9 9 8 6 5 5 5 4 4 4 5 4 4 3 2 2 2 1 1 1 1 1 3 2 2 2 1 2 1 2 2 2 2 3 3 3
2 2 2 2 2 2 4 2 3 3 6 8 9 8 8 7 6 5 5 5 4 4 4 4 4 4 4 3 2 2 2 1 1 1 2 3 2 2 2 2 2 2 1 2 2 2 2 2 2
3 2 1 1 2 2 3 1 3 5 7 8 8 7 7 6 6 6 6 6 5 5 4 4 5 4 4 4 3 2 2 2 2 1 2 3 3 3 3 3 2 1 2 3 3 3 3 3 3
2 2 1 4 3 3 4 3 5 5 8 7 6 6 6 6 6 6 6 5 5 5 4 4 5 5 4 3 3 2 2 2 1 1 2 3 3 4 3 3 2 1 2 2 3 3 3 3 3
1 1 2 4 3 3 4 5 5 5 8 8 7 7 6 6 5 5 6 6 6 6 5 4 4 5 4 3 3 2 2 2 1 1 2 2 3 4 3 2 1 2 2 2 2 2 2 2 2
4 3 3 4 3 3 3 5 5 5 7 8 7 6 6 7 7 5 5 6 5 5 5 5 4 4 4 3 2 2 2 1 1 1 2 2 2 3 3 2 2 3 3 2 2 2 2 2 1
4 4 4 6 5 4 5 6 6 5 5 6 7 7 7 8 6 5 5 5 5 4 5 4 4 3 3 2 2 2 1 0 1 1 1 2 3 3 3 3 2 2 2 2 2 2 2 2 1
4 3 4 4 3 4 4 5 5 6 8 9 10 10 9 7 4 4 5 5 5 5 5 5 4 3 3 3 3 2 2 1 1 1 1 2 3 3 3 3 2 2 2 2 1 2 2 1 1
4 4 5 4 2 1 1 4 4 4 5 6 8 8 9 10 9 7 6 6 6 5 6 5 5 4 3 3 2 2 2 2 2 1 0 1 2 2 2 3 2 2 2 2 1 2 3 2 0
4 6 4 3 1 3 2 3 6 4 4 7 7 7 8 8 8 8 8 7 7 7 6 6 5 5 4 4 4 4 3 2 2 2 1 1 1 1 2 2 2 2 2 2 2 2 2 3 1
5 5 3 2 2 2 2 2 7 2 5 7 8 8 9 9 9 9 9 9 7 7 6 6 5 5 4 4 4 4 3 2 1 1 1 1 1 1 2 2 2 2 2 2 2 1 2 2 2
2 3 3 4 3 3 4 4 6 4 7 7 7 8 8 9 8 8 7 6 6 6 5 5 6 5 4 5 5 5 4 3 2 2 2 1 1 1 2 2 2 2 2 2 2 2 2 2 2
3 5 4 4 3 5 2 3 7 6 6 7 8 8 7 7 8 8 7 7 6 7 6 6 6 5 5 5 5 5 5 5 5 4 3 2 1 1 3 2 2 2 2 2 2 2 2 2 2
2 7 6 4 3 4 3 3 6 4 2 3 5 6 6 7 7 8 9 8 7 7 8 7 7 6 6 5 5 5 5 4 3 4 3 3 3 3 3 3 3 3 3 2 2 1 2 2 2
3 3 5 5 2 2 3 4 5 4 3 2 3 4 6 7 8 8 8 8 8 7 8 8 8 6 6 6 5 5 5 4 4 4 3 3 3 2 3 3 3 3 3 3 2 2 2 1 2
5 5 4 3 2 2 3 3 4 3 1 2 3 5 5 5 5 6 7 8 7 7 6 7 7 7 6 6 6 5 5 5 4 4 3 3 3 3 2 2 3 3 3 3 2 1 2 2 1
2 2 4 3 3 4 2 5 4 5 4 4 4 5 5 5 5 5 4 5 5 4 4 5 6 6 6 6 6 5 4 4 4 4 4 4 3 3 3 3 3 3 3 2 2 2 2 2 2
5 5 6 4 3 3 3 6 5 3 3 3 3 3 4 4 5 4 4 3 3 3 3 3 5 5 6 6 5 5 5 4 4 4 4 4 3 3 3 2 2 2 2 2 3 3 2 2 3
Wind_Direction
172 115 91 64 57 55 44 338 64 54 54 52 69 80 83 66 76 120 200 136 132 137 139 124 115 111 105 99 99 101 100 98 95 92 90 89 88 86 86 85 86 86 86 85 81 77 75 74 73
134 106 65 59 79 79 6 30 72 73 126 110 75 74 78 70 76 105 122 139 134 135 132 126 120 114 109 104 104 105 103 100 98 95 93 92 89 87 85 86 87 86 85 83 81 78 75 71 71
157 107 81 67 84 134 140 129 118 83 81 84 76 56 71 89 92 116 146 142 128 125 125 127 122 117 113 110 108 109 108 104 102 100 97 95 92 90 88 86 86 84 82 80 79 77 76 73 72
66 46 55 69 75 67 151 163 130 82 56 61 93 68 58 60 120 135 136 133 124 123 122 122 120 117 113 110 107 107 107 105 104 102 99 97 95 93 89 88 87 85 83 82 80 79 75 72 72
68 72 64 63 64 30 106 122 104 80 69 72 92 92 62 13 108 125 129 126 126 124 120 123 120 118 115 111 107 106 107 106 104 102 99 98 98 95 92 91 91 90 87 85 83 79 73 72 72
62 71 82 88 74 40 27 90 100 93 100 95 95 104 95 68 111 128 130 128 130 132 126 119 123 122 119 114 112 110 110 107 103 102 101 100 99 96 95 96 94 93 91 88 84 81 77 74 71
107 97 119 134 108 66 114 105 109 112 99 105 116 105 120 130 137 133 130 129 122 125 124 110 115 118 119 117 115 115 114 111 108 106 103 100 99 98 97 100 100 98 95 91 87 83 76 69 67
127 104 96 125 122 90 93 94 110 107 106 112 108 127 160 197 148 119 116 115 118 119 124 129 122 112 114 114 118 118 118 113 112 109 106 104 101 100 98 100 103 100 95 91 86 81 72 64 66
91 83 118 171 151 160 128 97 75 81 89 76 85 137 157 152 124 110 103 98 113 123 137 141 138 137 135 131 124 115 112 110 108 102 102 98 78 80 91 102 102 97 89 84 77 73 66 61 67
83 113 199 176 152 149 125 120 128 89 81 84 82 96 125 133 129 128 131 135 139 147 158 153 148 155 155 141 113 97 93 82 77 73 71 76 87 88 87 82 91 86 78 69 65 64 63 58 56
117 153 165 135 145 137 121 87 104 119 118 154 150 147 142 137 139 144 144 149 157 165 155 154 159 158 153 140 134 115 95 80 74 95 98 96 83 67 54 45 45 44 50 43 46 53 55 57 62
115 151 147 145 140 131 144 134 92 125 176 165 155 150 144 145 155 157 153 155 156 149 152 152 154 153 150 135 127 123 119 112 102 96 108 108 101 89 76 58 46 42 41 47 48 55 55 57 62
124 160 141 152 134 139 127 129 129 138 147 139 142 144 150 157 163 161 157 161 153 152 151 154 146 149 142 121 118 109 118 116 116 105 103 117 116 111 106 89 72 60 60 67 68 71 66 61 63
160 135 132 146 140 149 137 174 133 176 150 139 146 155 160 161 159 148 150 161 163 160 156 147 142 146 132 126 126 126 123 115 100 91 103 118 117 118 107 97 82 64 63 78 83 87 83 74 77
114 91 3 273 188 186 128 9 199 183 149 149 158 163 164 167 162 164 169 168 167 161 155 144 144 138 133 135 135 126 120 106 93 85 89 98 104 114 109 98 85 75 71 75 69 62 63 66 72
73 74 286 274 210 209 139 234 240 183 153 166 173 172 174 181 177 179 171 170 168 157 153 150 141 135 139 137 129 118 112 105 96 91 91 97 105 109 104 101 95 89 75 73 78 66 64 56 59
25 192 234 274 225 188 168 225 238 188 167 178 185 184 184 187 187 185 175 169 167 162 155 146 136 140 144 135 122 112 107 100 97 86 93 108 109 111 110 107 103 93 80 66 83 72 80 75 64
217 212 228 240 234 168 194 230 232 201 180 186 192 190 187 188 197 187 174 164 160 157 152 146 141 143 140 124 105 90 80 69 71 87 101 118 118 119 116 110 101 97 89 69 73 79 69 78 72
204 208 238 247 228 183 216 231 230 208 185 190 197 196 195 201 202 180 170 162 150 142 142 141 137 145 137 127 129 124 131 145 69 86 105 115 112 113 117 117 109 106 108 116 114 105 83 60 69
210 221 253 273 237 189 218 245 236 207 200 193 192 196 197 197 188 180 168 160 160 159 155 149 146 145 147 157 162 157 155 155 131 81 79 100 111 119 124 129 132 128 114 105 113 117 117 91 85
232 213 226 237 288 337 87 306 265 244 211 200 195 194 193 189 188 183 175 173 167 165 167 162 159 154 155 149 132 103 69 47 46 45 62 102 127 128 133 138 135 140 140 154 161 156 144 160 280
241 242 224 205 150 257 188 266 272 237 223 209 203 197 199 196 187 179 177 176 174 177 171 163 163 162 164 154 144 144 144 163 205 198 182 149 139 143 146 152 149 160 168 174 183 157 158 152 185
219 229 221 195 180 261 230 201 275 237 229 224 210 200 198 194 184 182 183 181 176 172 166 166 161 161 163 158 156 156 154 177 189 159 147 163 191 182 169 169 168 179 190 193 186 165 172 167 170
190 40 21 43 73 284 230 184 266 230 220 214 209 204 199 194 185 183 183 172 172 170 165 164 162 170 170 161 161 163 165 165 155 158 175 209 242 239 227 196 188 197 203 201 199 193 187 187 179
84 81 28 355 359 263 243 183 252 250 224 199 195 195 195 187 178 176 176 175 176 175 174 173 170 176 178 171 174 177 176 172 178 182 190 199 214 239 240 222 211 209 206 203 195 191 196 195 193
175 141 159 204 237 281 325 241 270 289 232 182 179 177 174 179 176 179 184 180 180 183 182 179 178 180 181 183 188 184 179 180 190 192 190 200 211 224 228 222 217 213 208 203 198 204 212 197 205
150 174 176 153 223 272 290 292 317 4 37 101 142 157 171 179 179 179 181 182 185 187 189 185 183 185 189 189 188 183 187 188 192 198 198 205 220 232 225 222 219 220 210 198 184 200 212 188 207
158 154 103 124 186 251 285 278 259 267 250 144 153 168 184 179 178 182 185 186 188 190 189 186 186 192 193 190 191 189 195 199 198 191 196 205 217 228 222 221 219 219 215 202 177 188 208 178 192
140 126 124 142 171 170 240 272 245 208 203 187 188 181 173 170 172 179 184 189 186 182 182 188 194 194 194 194 196 191 196 199 194 198 206 207 212 216 216 217 217 212 209 204 185 199 199 195 201
171 174 151 161 235 182 180 263 288 209 193 174 180 176 171 169 169 171 170 162 158 164 178 195 204 201 200 197 197 197 198 195 197 204 210 207 206 212 210 198 198 208 207 204 193 206 204 202 207